Hourly Data Report for September 20, 2017

All times are specified in Local Standard Time (LST). Add 1 hour to adjust for Daylight Saving Time where and when it is observed.

WINNIPEG A CS
MANITOBA

49°55'00.000" N
97°14'58.000" W
238.70 m
502S001
71849
XWG

Download Data

Hourly Data (September 2017)
Hourly Data Report for September 20, 2017
Temp Definition
°C
Dew Point Temp Definition
°C
Rel Hum Definition
%
Wind Dir Definition
10's deg

Wind Spd Definition
km/h
Visibility Definition
km
Stn Press Definition
kPa
Hmdx Definition


Wind Chill Definition


Weather Definition


TIME
00:00 16.5 15.7 95 34 11   96.74     LegendNANA
01:00 17.1 15.4 90 12 15   96.66     LegendNANA
02:00 16.4 15.3 93 14 17   96.56     LegendNANA
03:00 16.4 15.1 92 18 12   96.46     LegendNANA
04:00 13.6 11.8 89 25 27   96.69     LegendNANA
05:00 12.8 10.7 87 26 27   96.78     LegendNANA
06:00 11.7 9.1 84 26 24   96.95     LegendNANA
07:00 11.3 9.4 88 21 12   97.03     LegendNANA
08:00 12.4 8.8 78 22 22   97.14     LegendNANA
09:00 13.4 7.9 69 21 29   97.22     LegendNANA
10:00 15.4 7.5 59 23 25   97.30     LegendNANA
11:00 16.3 5.7 49 24 32   97.35     LegendNANA
12:00 18.6 3.3 36 25 28   97.39     LegendNANA
13:00 19.6 1.5 30 23 23   97.43     LegendNANA
14:00 20.6 2.0 29 21 29   97.45     LegendNANA
15:00 20.8 1.4 28 22 26   97.47     LegendNANA
16:00 21.5 1.5 26 20 29   97.44     LegendNANA
17:00 20.4 1.8 29 19 32   97.47     LegendNANA
18:00 19.3 2.7 33 22 29   97.54     LegendNANA
19:00 17.1 3.8 41 21 17   97.64     LegendNANA
20:00 14.3 4.2 51 19 14   97.71     LegendNANA
21:00 12.2 4.5 59 17 14   97.76     LegendNANA
22:00 13.9 4.5 53 18 18   97.81     LegendNANA
23:00 12.8 4.5 57 17 21   97.82     LegendNANA

Notes on Data Quality.

Legend

  • E = Estimated
  • M = Missing
  • NA = Not Available
  • ‡ = Partner data that is not subject to review by the National Climate Archives
Date modified: